Location: Lac d’Artouste
(42.8667°N, 0.3333°W)
Time: 14:44:40
(UTC+00:00)

Daily predictions for brighter satellites

Satellite Brightness Start Highest point End
(mag) Time Altitude Azimuth Time Altitude Azimuth Time Altitude Azimuth
Landsat 7 4.2 19:46:49 10° SE 19:51:21 49° ENE 19:55:55 10° N
Cosmos 2221 3.6 19:48:09 10° SSW 19:52:23 51° W 19:56:37 10° N
Cosmos 1408 Rocket 3.7 19:48:12 10° N 19:52:38 80° W 19:56:58 10° S
Cosmos 1812 3.2 19:50:29 10° SSE 19:54:01 38° E 19:57:35 10° NNE
CZ-4 R/B 3.9 19:51:21 10° SSW 19:54:28 22° W 19:57:38 10° NW
Cosmos 1763 Rocket 3.6 19:49:28 10° NNW 19:54:41 86° WSW 19:59:57 10° SSE
Cosmos 1602 3.7 19:53:30 10° N 19:57:21 89° E 20:01:10 10° S
Cosmos 1802 Rocket 4.1 19:53:42 10° S 20:00:07 80° E 20:06:30 10° N
Tiangong 3.7 19:59:50 10° SW 20:01:06 12° SSW 20:02:20 10° S
Cosmos 1500 Rocket 3.5 19:58:32 10° N 20:02:55 79° E 20:07:18 10° S
Ariane Rocket 3.8 19:59:29 10° SE 20:04:05 37° ENE 20:08:43 10° N
Cosmos 1400 Rocket 2.8 20:03:50 10° N 20:07:40 60° ENE 20:11:29 10° SSE
Cosmos 2016 Rocket 4.0 20:02:26 10° S 20:08:44 79° E 20:15:08 10° N
Cosmos 2173 Rocket 4.4 20:03:04 10° SSW 20:09:11 68° W 20:15:17 10° N
OBJECT-B 3.4 20:09:04 10° SW 20:11:10 18° W 20:13:17 10° NW
Resurs 1-3 3.8 20:11:22 10° S 20:15:44 73° WSW 20:20:08 10° NNW
SL-4 R/B 4.3 20:12:53 10° WNW 20:16:49 26° N 20:20:33 10° NE
H-2A R/B 2.0 20:14:50 10° NNE 20:18:57 83° WNW 20:23:01 10° SSW
CENTAUR R/B 3.6 20:11:48 10° NNW 20:19:50 57° NE 20:27:54 13° ESE
Cosmos 2233 Rocket 4.1 20:14:29 10° S 20:20:38 57° E 20:26:50 10° NNE
SL-08 R/B 4.4 20:15:10 10° S 20:21:14 83° E 20:27:22 10° N
Resurs 01 Rocket 1.7 20:18:30 10° SSE 20:22:52 66° ENE 20:27:15 10° N
Cosmos 2061 Rocket 4.0 20:17:34 10° S 20:23:48 88° E 20:30:02 10° N
ATLAS 5 CENTAUR R/B 3.5 20:19:48 10° NW 20:25:06 38° WSW 20:31:15 10° S
BREEZE-M (TANK) 3.2 20:23:05 10° WSW 20:26:13 87° SSE 20:36:27 10° ENE
ISS -1.9 20:30:29 10° W 20:33:33 32° NNW 20:36:37 10° NE
SPOT 1/Viking Rocket 3.6 20:29:19 12° SSE 20:34:10 72° ENE 20:39:21 10° N
IRS-1A Rocket 4.3 20:29:13 10° SSE 20:34:48 87° ENE 20:40:32 10° NNW
CZ-4B R/B 1.5 20:32:55 10° N 20:36:08 71° WNW 20:39:19 10° SSW
Cosmos 2227 Rocket 3.6 20:31:33 10° N 20:36:12 25° NE 20:40:08 13° ESE
Cosmos 1814 Rocket 4.3 20:32:00 10° N 20:37:01 51° ENE 20:40:36 18° SE
Cosmos 1315 Rocket 3.5 20:35:26 10° N 20:39:18 38° ENE 20:41:35 21° SE
USA 276 2.4 20:38:01 10° WNW 20:40:52 47° SW 20:42:13 25° SSE
Cosmos 1666 Rocket 3.8 20:39:15 10° N 20:43:32 54° E 20:46:22 20° SSE
Cosmos 1805 Rocket 4.2 20:41:07 10° NNW 20:45:31 57° W 20:49:52 10° S
Geosat FO 4.5 20:48:22 24° SSE 20:50:22 80° ENE 20:53:46 10° NNW
Cosmos 1980 Rocket 4.1 20:50:55 11° E 20:50:55 11° E 20:52:28 10° ENE
USA 215 3.7 20:46:22 10° ENE 20:52:21 37° SE 20:58:18 10° SSW
Meteor 1-5 Rocket 4.3 20:49:03 10° NNW 20:54:32 75° W 20:59:14 13° S
Cosmos 841 Rocket 4.0 20:54:06 10° NNW 20:59:08 55° WSW 21:03:15 15° S
Cosmos 1633 Rocket 3.1 20:54:51 10° N 20:59:14 65° E 21:01:37 26° SSE
Genesis I 3.1 20:56:45 10° SSW 21:00:42 68° ESE 21:04:45 10° NE
Terra 2.9 20:59:20 21° ESE 21:01:28 30° ENE 21:05:36 10° N
Cosmos 1470 Rocket 4.1 20:58:16 10° N 21:02:24 40° ENE 21:04:03 28° SE
Cosmos 1656 3.6 20:57:04 10° SSW 21:02:37 67° ESE 21:08:07 10° NNE
Helios 1A Rocket 3.0 21:02:48 30° SE 21:04:36 57° ENE 21:08:32 10° N
Cosmos 1666 4.4 21:01:23 10° NNW 21:04:44 29° W 21:08:03 10° SSW
ARIANE 5 R/B 3.9 21:04:58 21° E 21:06:37 27° ENE 21:10:22 10° N
ATLAS 2AS CENTAUR R/B 4.4 21:07:42 15° ESE 21:07:46 15° ESE 21:11:54 10° ENE
Cosmos 1340 3.7 21:08:18 27° E 21:08:26 27° E 21:11:37 10° NE
Timation 1 Rocket 4.4 21:02:24 10° NNW 21:08:27 83° WSW 21:12:14 24° SSE
USA 245 4.1 21:05:53 23° SSE 21:09:12 85° ENE 21:15:15 10° NNW
Cosmos 1151 Rocket 3.5 21:07:18 10° SSW 21:11:33 60° W 21:15:48 10° N
NOSS 3-4 (A) 3.6 21:07:18 15° S 21:11:34 42° ESE 21:17:09 10° NE
NOSS 3-4 (C) 3.6 21:07:28 16° S 21:11:40 41° ESE 21:17:15 10° NE
Cosmos 1697 Rocket 3.2 21:10:19 26° SSE 21:12:42 37° ESE 21:17:53 10° NE
Cosmos 2297 Rocket 2.3 21:09:11 10° NNW 21:14:50 68° ENE 21:17:43 29° SE
Cosmos 1515 Rocket 3.8 21:15:07 34° SE 21:16:32 48° E 21:20:44 10° NNE
Aureole 1 Rocket 4.1 21:17:56 19° ENE 21:17:56 19° ENE 21:19:24 10° NE
Milstar 3 Cent rocket 4.2 21:05:30 10° W 21:17:07 29° SSW 21:21:06 21° SSE
Cosmos 1544 4.2 21:14:16 10° NNW 21:17:36 39° W 21:19:39 19° SSW
COSMOS 2487 4.2 21:15:40 10° NW 21:18:11 22° WSW 21:19:44 16° SW
NOSS 3-2 (A) 4.3 21:14:33 10° NW 21:22:13 70° WSW 21:27:48 24° SSE
X-37B 2.6 21:21:57 10° WSW 21:23:09 15° SW 21:23:09 15° SW
Cosmos 1536 3.0 21:20:50 10° N 21:24:46 55° E 21:25:40 44° SE
Cosmos 389 Rocket 3.4 21:21:49 10° N 21:24:59 32° ENE 21:25:05 32° E
SPOT 3 Rocket 3.8 21:22:45 23° S 21:25:55 65° WSW 21:31:03 10° NNW
USA 267 4.5 21:21:38 10° E 21:27:29 36° NNE 21:33:19 10° NW
Gbstr 26 Del rocket 3.9 21:21:51 10° WNW 21:29:06 88° SW 21:32:07 32° SE
EXPRESS MD2 4.4 21:24:18 10° WNW 21:29:15 39° N 21:30:52 23° ENE
CARTOSAT-1 4.3 21:30:21 24° SSW 21:32:37 47° W 21:36:48 10° NNW
Geosat 4.3 21:30:45 34° ESE 21:32:46 58° ENE 21:37:42 10° NNW
Okean 1 4.4 21:35:04 30° E 21:35:04 30° E 21:38:19 10° NNE
Cosmos 2034 Rocket 4.2 21:32:14 32° SSE 21:34:53 52° E 21:41:00 10° NNE
NOSS 3-2 (C) 4.1 21:28:02 10° NW 21:35:43 90° SW 21:40:33 30° SE
Cosmos 968 Rocket 3.7 21:30:59 10° SSW 21:36:07 68° WNW 21:41:16 10° NNE
ERS-1 Rocket 2.9 21:34:45 37° SSE 21:36:46 85° ENE 21:41:50 10° NNW
Cosmos 405 2.9 21:35:47 10° NNW 21:39:11 69° W 21:39:33 61° SW
Cosmos 2219 3.3 21:35:28 10° NNW 21:41:06 66° ENE 21:43:10 39° SE
H-2A ROCKET BODY 4.5 20:51:21 10° WSW 21:48:45 50° SSW 21:55:14 30° SE
Cosmos 44 3.4 21:44:48 10° NW 21:49:00 50° WSW 21:49:51 43° SSW
SAR-Lupe-4 4.2 21:46:45 10° NNE 21:49:37 42° ENE 21:49:37 42° ENE
CZ-2C R/B 3.9 21:46:54 10° N 21:51:38 74° WNW 21:53:54 31° SSW
Cosmos 2082 4.3 21:48:10 10° NNW 21:53:34 44° ENE 21:55:25 33° ESE
USA 238 DEB 4.0 21:48:54 10° NW 21:56:13 71° WSW 21:59:40 36° SSE
USA 238 4.0 21:49:00 10° NW 21:56:20 72° WSW 21:59:46 36° SSE
SL-4 R/B 3.5 21:53:10 10° NW 21:57:17 35° NNE 21:59:29 21° ENE
Cosmos 1354 Rocket 4.4 21:57:34 42° ESE 21:57:51 42° ESE 22:02:50 10° NNE
Cosmos 2344 3.4 21:50:34 10° SSW 21:58:09 69° ESE 22:05:37 10° NE
SPOT 5 3.6 21:56:59 32° SSW 21:59:16 54° W 22:04:28 10° NNW
Resurs 01 Rocket 4.3 21:58:11 10° WSW 21:59:48 12° W 22:01:24 10° WNW
CSL-04 DEB 4.1 21:57:07 10° NNE 22:01:04 80° ESE 22:01:10 79° SE
Cosmos 921 Rocket 3.5 22:00:20 10° N 22:04:42 47° ENE 22:05:07 46° E
Meteor 2-14 Rocket 4.3 22:00:50 10° N 22:06:57 78° E 22:08:49 47° SSE
Cosmos 1486 Rocket 4.2 22:07:18 30° SSW 22:09:56 73° WNW 22:15:15 10° NNE
CENTAUR R/B 3.9 22:02:45 10° NW 22:10:38 44° WSW 22:15:05 27° SSW
SAR-Lupe-1 4.2 22:07:10 10° N 22:10:30 72° NNW 22:10:30 72° NNW
Cosmos 1743 3.4 22:07:09 10° NNW 22:10:47 45° W 22:11:03 44° WSW
ISS -0.9 22:08:39 10° NW 22:11:03 18° N 22:13:27 10° NE
Meteor 2-4 Rocket 4.2 22:11:44 41° ESE 22:12:27 42° E 22:17:52 10° NNE
Meteor 1-18 Rocket 4.4 22:13:20 49° SE 22:14:17 55° E 22:19:51 10° NNE
Cosmos 2263 Rocket 3.2 22:11:58 10° N 22:17:04 34° NE 22:18:44 29° E
Cosmos 1933 Rocket 4.2 22:14:54 10° NNW 22:19:12 48° W 22:19:57 43° SW
Cosmos 2227 Rocket 2.6 22:15:03 10° NNW 22:20:35 55° WSW 22:21:57 44° SSW
Cosmos 2195 Rocket 4.5 22:17:01 10° N 22:23:23 75° E 22:25:02 51° SSE
Cosmos 2369 3.6 22:22:37 51° SSW 22:24:06 83° ESE 22:29:47 10° NNE
Cosmos 2228 Rocket 3.0 22:27:54 82° SSW 22:28:06 88° W 22:32:43 10° N
Cosmos 773 Rocket 4.1 22:26:22 10° NNW 22:31:34 61° ENE 22:32:11 56° E
Cosmos 1733 Rocket 4.0 22:28:28 10° N 22:32:19 36° ENE 22:32:19 36° ENE
Timation 2 Rocket 4.1 22:26:25 10° NNW 22:32:57 76° ENE 22:34:49 50° SE
Cosmos 1980 Rocket 2.0 22:32:37 57° SSW 22:33:49 86° ESE 22:39:30 10° NNE
USA 215 3.5 22:29:05 10° NE 22:35:35 69° NW 22:42:06 10° WSW
Cosmos 2322 Rocket 4.1 22:38:33 16° E 22:38:33 16° E 22:40:50 10° ENE
Cosmos 1503 Rocket 4.1 22:36:12 49° SW 22:37:33 71° WNW 22:42:52 10° NNE
Cosmos 1428 Rocket 4.4 22:31:46 10° N 22:38:06 88° ENE 22:39:34 56° S
Terra 3.1 22:38:13 28° WSW 22:39:09 30° W 22:43:21 10° NW
Meteor 2-8 Rocket 4.4 22:41:34 60° SSE 22:42:39 73° E 22:48:44 10° NNE
ARIANE 5 R/B 3.9 22:42:30 30° WSW 22:42:57 30° W 22:46:54 10° NW
Cosmos 1092 Rocket 3.9 22:37:04 10° N 22:43:17 80° W 22:44:40 56° S
RESURS DK-1 3.9 22:45:41 28° NE 22:45:41 28° NE 22:47:53 10° NE
Cosmos 1634 Rocket 3.9 22:44:08 57° S 22:45:32 88° E 22:51:47 10° N
Meteor 2-21 Rocket 4.5 22:41:58 10° NNW 22:48:00 71° W 22:49:19 54° SSW
SJ 16-02 1.5 22:52:00 69° NNW 22:52:00 69° NNW 22:56:04 10° NNE
Cosmos 1697 Rocket 4.1 22:51:57 12° WSW 22:56:40 34° NW 23:01:49 10° N
ATLAS 2AS CENTAUR R/B 2.9 22:55:03 46° SSW 22:57:37 75° ESE 23:05:14 10° NE
Cosmos 2297 Rocket 4.1 22:54:38 10° WNW 22:58:14 17° W 22:59:32 16° WSW
Iridium 4 Rocket 4.4 22:57:30 10° NNE 23:00:45 30° ENE 23:00:45 30° ENE
Cosmos 1346 Rocket 3.6 23:02:31 49° N 23:02:31 49° N 23:05:31 10° N
Meteor 2-15 4.3 23:00:36 65° SSW 23:01:36 87° W 23:07:42 10° N
BREEZE-M DEB (TANK) 3.5 23:05:17 10° WNW 23:19:58 - ESE 23:06:47 36° NW
USA 267 3.2 23:08:07 51° SE 23:10:01 88° NE 23:16:36 10° NW
SL-16 R/B 2.7 23:11:07 44° E 23:11:07 44° E 23:15:57 10° NE
ERS-2 3.9 23:08:22 10° NNE 23:10:13 27° NE 23:10:13 27° NE
Cosmos 2026 Rocket 4.4 23:13:27 10° NNW 23:19:17 49° W 23:20:25 44° WSW
H-2A R/B 4.2 23:16:26 10° NNE 23:19:32 51° N 23:19:32 51° N
ADEOS Rocket 3.2 23:23:30 47° E 23:24:12 50° ENE 23:29:40 10° N
Cosmos 2278 4.0 23:24:59 49° WSW 23:26:08 60° WNW 23:31:46 10° NNE
Cosmos 1975 4.5 23:24:23 10° NNW 23:27:10 28° WNW 23:27:10 28° WNW
Cosmos 158 Rocket 4.1 23:28:49 10° NNW 23:33:28 64° WNW 23:33:28 64° WNW
SL-4 R/B 3.8 23:32:49 10° WNW 23:34:54 27° WNW 23:34:54 27° WNW
Cosmos 1726 4.0 23:34:39 10° N 23:36:43 27° NNE 23:36:43 27° NNE
Cosmos 1898 Rocket 4.3 23:44:55 42° E 23:44:55 42° E 23:49:20 10° NNE
ATLAS 3B R/B 3.2 23:37:24 10° NNW 23:44:43 63° NE 23:47:59 36° ESE
Cosmos 1703 Rocket 4.2 23:46:14 52° NE 23:46:14 52° NE 23:49:45 10° NNE
Cosmos 2360 Rocket 2.9 23:47:34 40° E 23:47:34 40° E 23:52:16 10° NE
ISS -1.2 23:45:43 10° NW 23:47:27 21° NNW 23:47:27 21° NNW
ALOS 2 3.4 23:50:14 46° NW 23:50:14 46° NW 23:53:37 10° NNW
Meteor 1-12 Rocket 4.2 23:45:55 10° N 23:51:57 87° E 23:52:21 79° SSE
Cosmos 2266 Rocket 3.8 23:46:24 10° N 23:52:44 89° W 23:53:23 74° S
Cosmos 44 Rocket 3.5 23:48:18 10° NNW 23:52:19 63° NNW 23:52:19 63° NNW
Cosmos 1066 Rocket 4.4 23:52:42 61° WSW 23:53:14 64° WNW 23:58:58 10° N
Okean 1-7 3.6 23:54:41 55° N 23:54:41 55° N 23:58:10 10° N
